Location: Ahausen
(50.4985°N, 8.2722°E)
Time: 03:13:48
(UTC+00:00)

CSL-04 Debris - Pass Details

Date: 18 September 2020
Orbit: 827 x 848 km, 98.9° (Epoch: 22 October)

Event Time Altitude Azimuth Distance (km) Brightness Sun altitude
Rises 18:16:46 0° 166° (SSE) 3,360 7.1 -7.7°
Reaches altitude 10° 18:19:07 10° 168° (SSE) 2,429 6.4 -8.1°
Maximum altitude 18:24:30 79° 255° (WSW) 848 4.3 -8.9°
Drops below altitude 10° 18:29:56 10° 343° (NNW) 2,444 7.1 -9.7°
Sets 18:32:18 0° 344° (NNW) 3,383 7.8 -10.1°
